Content
SEND FEEDBACK

Daily
Averages
Monthly
Summary
United States of America

SEDONA, ARIZONA


Home > North America > United States > Arizona
Elevation: 4827 feet     Latitude: 34 51N     Longitude: 111 47W

WEATHER
 
SELECT A DAY
Number of Records: 137,842;   Date Range: 1/4/95 - 10/23/14
 
SHARE

PRINT THIS DATA

[ ← Previous Day ]
WEATHER ALMANAC - MARCH 24, 2014
[ Next Day → ]
[ °C ]   °F
Weather ElementAverageHighLow
Temperature62.6 °F75.2 °F (1:55 pm)51.8 °F (2:35 am)
Dewpoint14.5 °F21.2 °F (12:35 am)5 °F (9:35 pm)
Humidity16.6 %28 % (12:35 am)10 % (2:55 pm)
Barometer30.13 in30.20 in (9:35 am)30.08 in (4:15 pm)
Wind Speed9.6 mph16.1 mph (4:55 am)
Wind Gust21.9 mph (5:15 am)
Weather ElementAverage
Visibility10 mi
Wind DirectionENE (70.7 °)

Weather ElementTotal
Precipitation---
Heating Degree Days1.5 (Base 65)
Growing Degree Days13.5 (Base 50)
Averaged from 71 records on March 24, 2014
WEATHER CONDITIONS BREAKOUT
WIND DIRECTION BREAKOUT
WEATHER BY HOUR - MARCH 24, 2014
[ °C ]   °F
Local TimeTemperatureDewpointHumidityBarometerVisibilityWind DirectionWind SpeedGust SpeedPrecipitationEventsConditions
12:35 AM53.6 °F21.2 °F28 %30.14 in10.0 miNE (50°)10.4 mphClear
12:55 AM53.6 °F21.2 °F28 %30.14 in10.0 miNE (50°)11.5 mphClear
1:15 AM53.6 °F21.2 °F28 %30.14 in10.0 miNE (40°)12.7 mphClear
1:35 AM53.6 °F21.2 °F28 %30.14 in10.0 miNE (50°)10.4 mphClear
1:55 AM53.6 °F21.2 °F28 %30.14 in10.0 miNNE (30°)11.5 mphClear
2:15 AM53.6 °F21.2 °F28 %30.14 in10.0 miNE (40°)12.7 mphClear
2:35 AM51.8 °F19.4 °F28 %30.13 in10.0 miNE (40°)13.8 mphClear
2:55 AM53.6 °F19.4 °F26 %30.13 in10.0 miNE (50°)12.7 mph17.3 mphClear
3:15 AM53.6 °F19.4 °F26 %30.13 in10.0 miNE (50°)12.7 mphClear
3:35 AM53.6 °F19.4 °F26 %30.13 in10.0 miNE (50°)13.8 mphClear
3:55 AM53.6 °F17.6 °F24 %30.13 in10.0 miNE (50°)12.7 mphClear
4:15 AM53.6 °F17.6 °F24 %30.13 in10.0 miNE (40°)15.0 mph20.7 mphClear
4:35 AM53.6 °F17.6 °F24 %30.13 in10.0 miNE (50°)13.8 mph20.7 mphClear
4:55 AM53.6 °F17.6 °F24 %30.14 in10.0 miNE (50°)16.1 mphClear
5:15 AM53.6 °F17.6 °F24 %30.14 in10.0 miNE (50°)15.0 mph21.9 mphClear
5:35 AM53.6 °F17.6 °F24 %30.15 in10.0 miNE (50°)13.8 mph20.7 mphClear
5:55 AM53.6 °F17.6 °F24 %30.15 in10.0 miNE (50°)13.8 mph20.7 mphClear
6:15 AM55.4 °F17.6 °F23 %30.15 in10.0 miENE (60°)12.7 mphClear
6:35 AM55.4 °F17.6 °F23 %30.17 in10.0 miNE (50°)11.5 mphClear
6:55 AM55.4 °F17.6 °F23 %30.17 in10.0 miNE (50°)10.4 mph16.1 mphClear
7:15 AM55.4 °F17.6 °F23 %30.18 in10.0 miNE (50°)11.5 mph16.1 mphClear
7:35 AM57.2 °F17.6 °F21 %30.18 in10.0 miNE (50°)10.4 mph17.3 mphClear
7:55 AM59.0 °F17.6 °F20 %30.18 in10.0 miNE (50°)10.4 mph16.1 mphClear
8:15 AM60.8 °F19.4 °F20 %30.18 in10.0 miENE (60°)8.1 mph16.1 mphClear
8:35 AM60.8 °F19.4 °F20 %30.18 in10.0 miNE (50°)9.2 mph16.1 mphClear
8:55 AM62.6 °F19.4 °F19 %30.19 in10.0 miENE (60°)5.8 mphClear
9:15 AM64.4 °F21.2 °F19 %30.19 in10.0 miSSE (150°)8.1 mphClear
9:35 AM68.0 °F19.4 °F16 %30.20 in10.0 miEast (80°)8.1 mphClear
9:55 AM69.8 °F19.4 °F15 %30.20 in10.0 miEast (100°)5.8 mph16.1 mphClear
10:15 AM69.8 °F17.6 °F14 %30.19 in10.0 miEast (80°)5.8 mphClear
10:35 AM69.8 °F17.6 °F14 %30.19 in10.0 miNE (50°)4.6 mphClear
10:55 AM68.0 °F17.6 °F15 %30.19 in10.0 miNorth (10°)5.8 mphClear
11:15 AM68.0 °F14.0 °F12 %30.19 in10.0 miWNW (300°)4.6 mphClear
11:35 AM71.6 °F14.0 °F11 %30.18 in10.0 miSouth (180°)4.6 mphClear
11:55 AM71.6 °F17.6 °F13 %30.17 in10.0 miSE (130°)4.6 mphClear
12:15 PM69.8 °F14.0 °F12 %30.17 in10.0 miNorth (360°)4.6 mphClear
12:35 PM69.8 °F15.8 °F13 %30.16 in10.0 miNorth (10°)9.2 mphClear
12:55 PM73.4 °F17.6 °F12 %30.15 in10.0 miESE (120°)3.5 mphClear
1:15 PM71.6 °F15.8 °F12 %30.14 in10.0 miNNE (30°)4.6 mphClear
1:35 PM73.4 °F15.8 °F11 %30.13 in10.0 miSSE (150°)4.6 mphClear
1:55 PM75.2 °F15.8 °F11 %30.13 in10.0 miCalmClear
2:15 PM73.4 °F15.8 °F11 %30.12 in10.0 miCalmClear
2:35 PM71.6 °F14.0 °F11 %30.11 in10.0 miSSW (210°)5.8 mphClear
2:55 PM75.2 °F14.0 °F10 %30.10 in10.0 miESE (120°)4.6 mphClear
3:15 PM73.4 °F14.0 °F10 %30.10 in10.0 miNorth (10°)12.7 mph17.3 mphClear
3:35 PM73.4 °F14.0 °F10 %30.09 in10.0 miNorth (10°)6.9 mphClear
3:55 PM71.6 °F14.0 °F11 %30.09 in10.0 miNNE (30°)3.5 mphClear
4:15 PM71.6 °F12.2 °F10 %30.08 in10.0 miEast (100°)4.6 mph16.1 mphClear
4:35 PM71.6 °F12.2 °F10 %30.08 in10.0 miNorth (10°)10.4 mphClear
4:55 PM71.6 °F12.2 °F10 %30.08 in10.0 miNE (40°)8.1 mphClear
5:15 PM71.6 °F12.2 °F10 %30.08 in10.0 miESE (110°)6.9 mphClear
5:35 PM69.8 °F10.4 °F10 %30.08 in10.0 miEast (80°)4.6 mph17.3 mphClear
5:55 PM68.0 °F8.6 °F10 %30.08 in10.0 miEast (90°)13.8 mphClear
6:15 PM68.0 °F10.4 °F11 %30.08 in10.0 miEast (90°)9.2 mphClear
6:35 PM66.2 °F8.6 °F11 %30.09 in10.0 miEast (100°)8.1 mph16.1 mphClear
6:55 PM64.4 °F8.6 °F11 %30.09 in10.0 miEast (80°)9.2 mphClear
7:15 PM64.4 °F8.6 °F11 %30.09 in10.0 miENE (70°)10.4 mph17.3 mphClear
7:35 PM62.6 °F10.4 °F13 %30.10 in10.0 miENE (70°)12.7 mph17.3 mphClear
7:55 PM62.6 °F10.4 °F13 %30.10 in10.0 miENE (60°)13.8 mph19.6 mphClear
8:15 PM60.8 °F8.6 °F13 %30.11 in10.0 miEast (80°)12.7 mph18.4 mphClear
8:35 PM60.8 °F8.6 °F13 %30.11 in10.0 miEast (80°)13.8 mph18.4 mphClear
8:55 PM60.8 °F6.8 °F12 %30.11 in10.0 miEast (80°)10.4 mph18.4 mphClear
9:15 PM59.0 °F6.8 °F13 %30.12 in10.0 miENE (70°)12.7 mph19.6 mphClear
9:35 PM59.0 °F5.0 °F12 %30.12 in10.0 miENE (60°)13.8 mphClear
9:55 PM59.0 °F5.0 °F12 %30.11 in10.0 miENE (60°)13.8 mph19.6 mphClear
10:15 PM59.0 °F5.0 °F12 %30.11 in10.0 miNE (50°)15.0 mphClear
10:35 PM59.0 °F5.0 °F12 %30.12 in10.0 miNE (50°)12.7 mph17.3 mphClear
10:55 PM59.0 °F5.0 °F12 %30.12 in10.0 miNE (50°)10.4 mphClear
11:15 PM57.2 °F5.0 °F12 %30.12 in10.0 miNE (50°)9.2 mphClear
11:35 PM57.2 °F5.0 °F12 %30.11 in10.0 miNE (50°)10.4 mphClear
11:55 PM55.4 °F6.8 °F14 %30.11 in10.0 miNE (40°)11.5 mphClear
Hourly data recorded from KSEZ, located miles away from Sedona, Arizona







STORIES FROM OUR PARTNERS